FW3572 Weather Reports


time (UTC)temp
C
wind
direction
speed
KPH
gust
KPH
rain 1hr
cm
rain 24hr
cm
rain mn
cm
humidity
%
barometer
mb
20260831223013 28 34 3.2 14.5 0.00 0.03 0.03 100 1017.3
20260831222512 28 57 1.6 9.7 0.00 0.03 0.03 100 1017.3
20260831222012 28 5 3.2 9.7 0.00 0.03 0.03 100 1017.2
20260831221509 28 36 3.2 9.7 0.00 0.03 0.03 100 1017.2
20260831221010 28 13 3.2 14.5 0.00 0.03 0.03 100 1017.3
20260831220510 28 40 4.8 14.5 0.00 0.03 0.03 100 1017.3
20260831220010 28 347 3.2 9.7 0.00 0.03 0.03 100 1017.4
20260831215511 28 26 1.6 12.9 0.00 0.03 0.03 100 1017.4
20260831215010 28 53 3.2 14.5 0.00 0.03 0.03 100 1017.4
20260831214510 29 13 4.8 14.5 0.00 0.03 0.03 100 1017.4
20260831214008 29 348 3.2 9.7 0.00 0.03 0.03 100 1017.5
20260831213508 29 323 3.2 9.7 0.00 0.03 0.03 100 1017.5
20260831213008 29 360 4.8 9.7 0.00 0.03 0.03 100 1017.5
20260831212511 29 12 3.2 12.9 0.00 0.03 0.03 100 1017.5
20260831212009 29 317 6.4 14.5 0.00 0.03 0.03 100 1017.5
20260831211508 29 5 3.2 14.5 0.00 0.03 0.03 100 1017.4
20260831211008 29 355 4.8 14.5 0.00 0.03 0.03 100 1017.4
20260831210506 29 9 4.8 16.1 0.00 0.03 0.03 100 1017.4
20260831210007 30 14 6.4 16.1 0.00 0.03 0.03 100 1017.4
20260831205507 29 28 3.2 9.7 0.00 0.03 0.03 100 1017.4
20260831205007 29 9 3.2 16.1 0.03 0.03 0.03 100 1017.4
20260831204508 28 360 3.2 16.1 0.03 0.03 0.03 100 1017.4
20260831204006 28 9 6.4 14.5 0.03 0.03 0.03 100 1017.4
20260831203507 28 360 4.8 12.9 0.03 0.03 0.03 100 1017.5
20260831203006 28 13 1.6 8.0 0.03 0.03 0.03 100 1017.4
20260831202505 28 340 1.6 6.4 0.03 0.03 0.03 100 1017.4
20260831202006 28 302 0.0 3.2 0.03 0.03 0.03 100 1017.5
20260831201508 27 258 0.0 4.8 0.03 0.03 0.03 100 1017.6
20260831201007 27 233 0.0 8.0 0.03 0.03 0.03 100 1017.6
20260831200505 27 234 1.6 8.0 0.03 0.03 0.03 100 1017.7
20260831200015 27 235 3.2 8.0 0.03 0.03 0.03 100 1017.8
20260831195504 27 221 1.6 6.4 0.03 0.03 0.03 100 1017.9
20260831195004 28 250 0.0 6.4 0.00 0.00 0.00 100 1018.0
20260831194505 28 273 0.0 8.0 0.00 0.00 0.00 100 1018.1
20260831194005 28 236 1.6 8.0 0.00 0.00 0.00 100 1018.1
20260831193506 28 303 0.0 9.7 0.00 0.00 0.00 100 1018.2
20260831193005 29 299 3.2 9.7 0.00 0.00 0.00 100 1018.3
20260831192504 29 325 0.0 6.4 0.00 0.00 0.00 100 1018.3
20260831192004 29 315 0.0 6.4 0.00 0.00 0.00 100 1018.2
20260831191503 29 318 0.0 6.4 0.00 0.00 0.00 100 1018.1
20260831191003 29 316 1.6 6.4 0.00 0.00 0.00 100 1018.1
20260831190503 29 242 1.6 8.0 0.00 0.00 0.00 100 1018.1
20260831190004 30 239 1.6 8.0 0.00 0.00 0.00 100 1018.0
20260831185502 31 244 0.0 8.0 0.00 0.00 0.00 100 1017.9
20260831185001 31 344 1.6 9.7 0.00 0.00 0.00 100 1017.9
20260831184608 32 81 0.0 8.0 0.00 0.00 0.00 100 1017.8
20260831184058 32 30 3.2 8.0 0.00 0.00 0.00 100 1017.9
20260831183556 31 23 1.6 8.0 0.00 0.00 0.00 100 1018.0
20260831183100 31 138 1.6 8.0 0.00 0.00 0.00 100 1018.1
20260831182554 31 21 3.2 14.5 0.00 0.00 0.00 100 1018.2
20260831182053 31 144 4.8 16.1 0.00 0.00 0.00 100 1018.3
20260831181556 32 133 3.2 12.9 0.00 0.00 0.00 100 1018.2
20260831181048 31 26 3.2 16.1 0.00 0.00 0.00 100 1018.3
20260831180547 31 74 1.6 11.3 0.00 0.00 0.00 100 1018.2
20260831180046 31 121 3.2 17.7 0.00 0.00 0.00 100 1018.2
20260831175544 31 119 3.2 17.7 0.00 0.00 0.00 100 1018.2
20260831175043 31 40 4.8 12.9 0.00 0.00 0.00 100 1018.2
20260831174542 31 32 3.2 14.5 0.00 0.00 0.00 100 1018.1
20260831174041 31 51 1.6 14.5 0.00 0.00 0.00 100 1018.2
20260831173540 31 30 3.2 9.7 0.00 0.00 0.00 100 1018.4
20260831173038 31 22 3.2 12.9 0.00 0.00 0.00 100 1018.6
20260831172537 31 360 3.2 14.5 0.00 0.00 0.00 100 1018.7
20260831172035 31 138 4.8 14.5 0.00 0.00 0.00 100 1018.7
20260831171538 31 82 3.2 9.7 0.00 0.00 0.00 100 1018.5
20260831171035 31 140 3.2 12.9 0.00 0.00 0.00 100 1018.6
20260831170534 31 28 1.6 12.9 0.00 0.00 0.00 100 1018.7
20260831170033 31 64 3.2 12.9 0.00 0.00 0.00 100 1018.9
20260831165528 31 59 3.2 12.9 0.00 0.00 0.00 100 1018.9
20260831165025 31 114 1.6 12.9 0.00 0.00 0.00 100 1018.8
20260831164524 31 325 3.2 17.7 0.00 0.00 0.00 100 1018.8
20260831164022 31 93 4.8 17.7 0.00 0.00 0.00 100 1018.7
20260831163521 30 41 1.6 11.3 0.00 0.00 0.00 100 1018.7
20260831163030 30 116 3.2 11.3 0.00 0.00 0.00 100 1018.9
20260831162524 30 80 1.6 11.3 0.00 0.00 0.00 100 1018.9
20260831162019 30 117 1.6 6.4 0.00 0.00 0.00 100 1019.0
20260831161518 30 109 1.6 8.0 0.00 0.00 0.00 100 1019.1
20260831161023 30 18 1.6 11.3 0.00 0.00 0.00 100 1019.2
20260831160518 30 140 0.0 11.3 0.00 0.00 0.00 100 1019.2
20260831160021 30 64 0.0 12.9 0.00 0.00 0.00 100 1019.2
20260831155519 30 137 3.2 12.9 0.00 0.00 0.00 100 1019.3
20260831155019 30 87 0.0 9.7 0.00 0.00 0.00 100 1019.3
20260831154703 30 122 3.2 9.7 0.00 1.91 0.00 100 1019.4
20260831154017 30 94 1.6 8.0 0.00 1.91 0.00 100 1019.3
20260831153521 30 128 1.6 6.4 0.00 1.91 0.00 100 1019.4
20260831153024 30 55 1.6 6.4 0.00 1.91 0.00 100 1019.4
20260831152516 30 134 0.0 8.0 0.00 1.91 0.00 100 1019.3
20260831152020 30 109 3.2 8.0 0.00 1.91 0.00 100 1019.3
20260831151514 31 90 1.6 8.0 0.00 1.91 0.00 100 1019.3
20260831151013 30 355 1.6 8.0 0.00 1.91 0.00 100 1019.2
20260831150511 30 101 0.0 8.0 0.00 1.91 0.00 100 1019.1
20260831150011 30 88 1.6 6.4 0.00 1.91 0.00 100 1019.2
20260831145507 31 123 0.0 4.8 0.00 1.91 0.00 100 1019.3
20260831145007 30 336 0.0 6.4 0.00 1.91 0.00 100 1019.3
20260831144505 30 76 0.0 12.9 0.00 2.03 0.00 100 1019.2
20260831144004 30 5 3.2 12.9 0.00 2.03 0.00 100 1019.3
20260831143504 30 16 1.6 9.7 0.00 2.03 0.00 100 1019.3
20260831143001 30 360 3.2 9.7 0.00 2.03 0.00 100 1019.2
20260831142503 29 342 0.0 8.0 0.00 2.03 0.00 100 1019.3
20260831142101 29 5 0.0 6.4 0.00 2.03 0.00 100 1019.2
20260831141615 29 61 0.0 9.7 0.00 2.03 0.00 100 1019.2
20260831141503 29 57 1.6 9.7 0.00 2.03 0.00 100 1019.2
20260831141058 29 17 3.2 9.7 0.00 2.03 0.00 100 1019.1
20260831140558 30 9 1.6 6.4 0.00 2.03 0.00 100 1019.0
20260831140057 29 97 0.0 4.8 0.00 2.03 0.00 100 1018.9
20260831135556 29 94 0.0 4.8 0.00 2.03 0.00 100 1018.9
20260831135058 29 328 0.0 6.4 0.00 2.03 0.00 100 1018.8
20260831134602 29 311 0.0 6.4 0.00 2.06 0.00 100 1018.7
20260831134054 28 338 0.0 6.4 0.00 2.06 0.00 100 1018.7
20260831133551 28 17 1.6 6.4 0.00 2.06 0.00 100 1018.7
20260831133049 28 360 0.0 4.8 0.00 2.06 0.00 100 1018.6
20260831132549 28 5 0.0 6.4 0.00 2.06 0.00 100 1018.5
20260831132048 28 329 1.6 6.4 0.00 2.06 0.00 100 1018.5
20260831131547 28 350 0.0 0.0 0.00 2.06 0.00 100 1018.5
20260831131047 28 10 0.0 0.0 0.00 2.06 0.00 100 1018.6
20260831130545 28 355 0.0 0.0 0.00 2.06 0.00 100 1018.5
20260831130053 27 346 0.0 0.0 0.00 2.06 0.00 100 1018.6
20260831125544 27 346 0.0 0.0 0.00 2.06 0.00 100 1018.6
20260831125044 27 346 0.0 0.0 0.00 2.06 0.00 100 1018.6
20260831124543 27 346 0.0 0.0 0.00 2.06 0.00 100 1018.6
20260831124041 27 344 0.0 0.0 0.00 2.06 0.00 100 1018.6
20260831123540 26 350 0.0 0.0 0.00 2.06 0.00 100 1018.6
20260831123041 26 344 0.0 0.0 0.00 2.06 0.00 100 1018.5
20260831122541 26 330 0.0 4.8 0.00 2.06 0.00 100 1018.4
20260831122039 26 332 1.6 4.8 0.00 2.06 0.00 100 1018.4
20260831121536 26 65 0.0 0.0 0.00 2.06 0.00 100 1018.3
20260831121036 26 65 0.0 0.0 0.00 2.06 0.00 100 1018.2
20260831120536 26 65 0.0 0.0 0.00 2.06 0.00 100 1018.2
20260831120036 26 65 0.0 0.0 0.00 2.06 0.00 100 1018.0
20260831115535 26 65 0.0 0.0 0.00 2.06 0.00 100 1017.9
20260831115035 25 65 0.0 0.0 0.00 2.06 0.00 100 1017.8
20260831114539 25 65 0.0 0.0 0.00 2.06 0.00 100 1017.8
20260831114038 25 65 0.0 0.0 0.00 2.06 0.00 100 1017.7
20260831113537 25 65 0.0 0.0 0.00 2.06 0.00 100 1017.7
20260831113038 25 65 0.0 0.0 0.00 2.06 0.00 100 1017.6
20260831112538 25 65 0.0 0.0 0.00 2.06 0.00 100 1017.6
20260831112034 25 65 0.0 0.0 0.00 2.06 0.00 100 1017.6
20260831111533 25 65 0.0 0.0 0.00 2.06 0.00 100 1017.5
20260831111032 25 65 0.0 0.0 0.00 2.06 0.00 100 1017.5
20260831110534 25 65 0.0 0.0 0.00 2.06 0.00 100 1017.4
20260831110034 25 65 0.0 0.0 0.00 2.06 0.00 100 1017.5
20260831105533 25 65 0.0 0.0 0.00 2.06 0.00 100 1017.3
20260831105034 25 65 0.0 0.0 0.00 2.06 0.00 100 1017.4
20260831104533 25 65 0.0 0.0 0.00 2.06 0.00 100 1017.4
20260831104032 25 65 0.0 0.0 0.00 2.06 0.00 100 1017.2
20260831103531 25 65 0.0 0.0 0.00 2.06 0.00 100 1017.3
20260831103031 25 65 0.0 0.0 0.00 2.06 0.00 100 1017.2
20260831102531 25 65 0.0 1.6 0.00 2.06 0.00 100 1017.2
20260831102033 25 65 0.0 1.6 0.00 2.06 0.00 100 1017.3
20260831101531 25 65 0.0 0.0 0.00 2.06 0.00 100 1017.2
20260831101034 25 65 0.0 0.0 0.00 2.06 0.00 100 1017.1
20260831100530 25 65 0.0 4.8 0.00 2.06 0.00 100 1017.1
20260831100030 25 65 0.0 4.8 0.00 2.06 0.00 100 1017.0
20260831095532 25 155 0.0 0.0 0.00 2.06 0.00 100 1017.0
20260831095031 25 155 0.0 0.0 0.00 2.06 0.00 100 1017.0
20260831094530 25 155 0.0 0.0 0.00 2.06 0.00 100 1017.0
20260831094030 25 155 0.0 0.0 0.00 2.06 0.00 100 1017.1
20260831093533 25 155 0.0 0.0 0.00 2.06 0.00 100 1017.0
20260831093030 25 155 0.0 0.0 0.00 2.06 0.00 100 1016.9
20260831092529 25 155 0.0 0.0 0.00 2.06 0.00 100 1017.0
20260831092031 25 155 0.0 0.0 0.00 2.06 0.00 100 1016.9
20260831091528 25 155 0.0 0.0 0.00 2.06 0.00 100 1017.0
20260831091031 25 155 0.0 0.0 0.00 2.06 0.00 100 1017.0
20260831090528 25 155 0.0 0.0 0.00 2.06 0.00 100 1017.1
20260831090028 25 155 0.0 0.0 0.00 2.06 0.00 100 1017.2
20260831085526 25 155 0.0 0.0 0.00 2.06 0.00 100 1017.2
20260831085030 25 155 0.0 0.0 0.00 2.06 0.00 100 1017.3
20260831084527 25 155 0.0 0.0 0.00 2.06 0.00 100 1017.3
20260831084026 25 155 0.0 0.0 0.00 2.06 0.00 100 1017.4
20260831083526 25 155 0.0 0.0 0.00 2.06 0.00 100 1017.4
20260831083026 25 155 0.0 0.0 0.00 2.06 0.00 100 1017.4
20260831082526 25 155 0.0 0.0 0.00 2.06 0.00 100 1017.3
20260831082026 25 155 0.0 0.0 0.00 2.06 0.00 100 1017.4
20260831081525 25 155 0.0 0.0 0.00 2.06 0.00 100 1017.3
20260831081025 25 155 0.0 0.0 0.00 2.06 0.00 100 1017.3
20260831080524 25 155 0.0 0.0 0.00 2.06 0.00 100 1017.3
20260831080124 25 155 0.0 0.0 0.00 2.06 0.00 100 1017.3
20260831075523 25 155 0.0 0.0 0.00 2.06 0.00 100 1017.3
20260831075023 25 156 0.0 0.0 0.00 2.06 0.00 100 1017.3
20260831074524 25 157 0.0 0.0 0.00 2.06 0.00 100 1017.5
20260831074023 25 157 0.0 0.0 0.00 2.06 0.00 100 1017.4
20260831073531 25 157 0.0 0.0 0.00 2.06 0.00 100 1017.4
20260831073027 25 157 0.0 0.0 0.00 2.06 0.00 100 1017.4
20260831072523 25 157 0.0 0.0 0.00 2.06 0.00 100 1017.4
20260831072023 25 157 0.0 0.0 0.00 2.06 0.00 100 1017.5
20260831071521 25 157 0.0 0.0 0.00 2.06 0.00 100 1017.5
20260831071021 25 157 0.0 0.0 0.00 2.06 0.00 100 1017.6
20260831070523 25 157 0.0 0.0 0.00 2.06 0.00 100 1017.5
20260831070028 25 159 0.0 0.0 0.00 2.06 0.00 100 1017.7
20260831065521 25 159 0.0 0.0 0.00 2.06 0.00 100 1017.7
20260831065024 25 159 0.0 0.0 0.00 2.06 0.00 100 1017.5
20260831064521 25 163 0.0 0.0 0.00 2.06 0.00 100 1017.5
20260831064020 25 163 0.0 0.0 0.00 2.06 0.00 100 1017.4
20260831063520 25 163 0.0 0.0 0.00 2.06 0.00 100 1017.5
20260831063019 25 163 0.0 0.0 0.00 2.06 0.00 100 1017.5
20260831062520 25 163 0.0 0.0 0.00 2.06 0.00 100 1017.5
20260831062020 25 163 0.0 0.0 0.00 2.06 0.00 100 1017.5
20260831061518 25 163 0.0 0.0 0.00 2.06 0.00 100 1017.6
20260831061019 25 163 0.0 3.2 0.00 2.06 0.00 100 1017.7
20260831060517 25 163 0.0 3.2 0.00 2.06 0.00 100 1017.8
20260831060016 25 163 0.0 4.8 0.00 2.06 0.00 100 1017.9
20260831055516 25 163 0.0 8.0 0.00 2.06 0.00 100 1018.1
20260831055015 25 163 3.2 8.0 0.00 2.06 0.00 100 1018.1
20260831054515 25 182 3.2 9.7 0.00 2.06 0.00 100 1018.2
20260831054017 25 171 4.8 11.3 0.00 2.06 0.00 100 1018.3
20260831053513 26 172 4.8 20.9 0.00 2.06 0.00 100 1018.3
20260831053012 26 142 9.7 20.9 0.00 2.06 0.00 100 1018.3
20260831052511 26 169 1.6 8.0 0.00 2.06 0.00 100 1018.3
20260831052010 26 165 3.2 8.0 0.00 2.06 0.00 100 1018.4
20260831051522 25 109 1.6 6.4 0.00 2.06 0.00 100 1018.6
20260831051009 25 106 0.0 9.7 0.00 2.06 0.00 100 1018.6
20260831050509 25 104 3.2 9.7 0.00 2.06 0.00 100 1018.5
20260831050009 26 130 1.6 12.9 0.00 2.06 0.00 100 1018.6
20260831045509 26 130 3.2 12.9 0.00 2.06 0.00 100 1018.7
20260831045009 26 90 0.0 0.0 0.00 2.06 0.00 100 1018.7
20260831044508 26 13 0.0 0.0 0.00 2.06 0.00 100 1018.6
20260831044008 25 12 0.0 0.0 0.00 2.06 0.00 100 1018.6
20260831043507 25 12 0.0 0.0 0.00 2.06 0.00 100 1018.7
20260831043008 26 12 0.0 0.0 0.00 2.06 0.00 100 1018.6
20260831042507 25 12 0.0 0.0 0.00 2.06 0.00 100 1018.6
20260831042007 26 12 0.0 0.0 0.00 2.06 0.00 100 1018.5
20260831041509 26 12 0.0 0.0 0.00 2.06 0.00 100 1018.7
20260831041008 26 12 0.0 0.0 0.00 2.06 0.00 100 1018.8
20260831040505 26 11 0.0 0.0 0.00 2.06 0.00 100 1018.7
20260831040005 26 12 0.0 0.0 0.00 2.06 0.00 100 1018.7
20260831035506 26 12 0.0 0.0 0.00 2.06 0.00 100 1018.7
20260831035004 26 12 0.0 0.0 0.00 2.06 0.00 100 1018.9
20260831034505 26 12 0.0 0.0 0.00 2.06 2.06 100 1018.9
20260831034003 26 12 0.0 0.0 0.00 2.06 2.06 100 1018.9
20260831033503 26 12 0.0 0.0 0.00 2.06 2.06 100 1018.9
20260831033004 26 12 0.0 0.0 0.00 2.06 2.06 100 1018.9
20260831032503 26 12 0.0 0.0 0.00 2.06 2.06 100 1018.9
20260831032002 26 12 0.0 0.0 0.00 2.06 2.06 100 1018.9
20260831031502 26 12 0.0 0.0 0.00 2.06 2.06 100 1018.9
20260831031003 26 12 0.0 0.0 0.00 2.06 2.06 100 1018.8
20260831030505 26 12 0.0 0.0 0.00 2.06 2.06 100 1018.9
20260831030002 26 12 0.0 0.0 0.00 2.06 2.06 100 1018.8
20260831025502 26 12 0.0 0.0 0.00 2.06 2.06 100 1018.8
20260831025002 26 11 0.0 0.0 0.00 2.06 2.06 100 1018.7
20260831024502 26 11 0.0 3.2 0.00 2.06 2.06 100 1018.7
20260831024002 26 11 0.0 3.2 0.00 2.06 2.06 100 1018.7
20260831023502 26 12 0.0 4.8 0.00 2.06 2.06 100 1018.7
20260831023001 26 12 0.0 4.8 0.00 2.06 2.06 100 1018.7
20260831022504 26 11 1.6 4.8 0.00 2.06 2.06 100 1018.6
20260831022001 26 12 0.0 3.2 0.00 2.06 2.06 100 1018.6
20260831021603 26 12 0.0 3.2 0.00 2.06 2.06 100 1018.6
20260831021100 26 12 0.0 4.8 0.00 2.06 2.06 100 1018.7
20260831021004 26 12 0.0 4.8 0.00 2.06 2.06 100 1018.7
20260831020600 26 12 1.6 6.4 0.00 2.06 2.06 100 1018.7
20260831015600 26 5 0.0 6.4 0.00 2.06 2.06 100 1018.6
20260831015100 26 355 0.0 6.4 0.00 2.06 2.06 100 1018.6
20260831014610 26 355 0.0 6.4 0.00 2.06 2.06 100 1018.7
20260831014100 26 15 1.6 6.4 0.00 2.06 2.06 100 1018.7
20260831013600 26 17 1.6 6.4 0.00 2.06 2.06 100 1018.7
20260831013113 26 11 0.0 4.8 0.00 2.06 2.06 100 1018.8
20260831012600 26 14 0.0 0.0 0.00 2.06 2.06 100 1018.9
20260831012100 26 15 0.0 0.0 0.00 2.06 2.06 100 1018.8
20260831011604 26 28 0.0 0.0 0.00 2.06 2.06 100 1018.9
20260831011058 26 33 0.0 3.2 0.00 2.06 2.06 100 1018.8
20260831010559 26 38 0.0 3.2 0.00 2.06 2.06 100 1018.7
20260831010058 26 38 0.0 4.8 0.00 2.06 2.06 100 1018.7
20260831005558 26 38 1.6 4.8 0.00 2.06 2.06 100 1018.7
20260831005057 26 79 0.0 3.2 0.00 2.06 2.06 100 1018.8
20260831004558 26 80 0.0 3.2 0.00 2.06 2.06 100 1018.7
20260831004058 26 77 0.0 6.4 0.00 2.06 2.06 100 1018.7
20260831003558 26 55 0.0 6.4 0.00 2.06 2.06 100 1018.7
20260831003059 26 110 0.0 3.2 0.00 2.06 2.06 100 1018.5
20260831002559 26 111 0.0 4.8 0.00 2.06 2.06 100 1018.6
20260831002058 26 113 0.0 4.8 0.00 2.06 2.06 100 1018.6
20260831001557 26 119 0.0 4.8 0.00 2.06 2.06 100 1018.6
20260831001056 26 120 0.0 1.6 0.00 2.06 2.06 100 1018.6
20260831000556 26 40 0.0 6.4 0.00 2.06 2.06 100 1018.3
20260831000056 26 26 1.6 6.4 0.00 2.06 2.06 100 1018.4
20260830235555 26 101 0.0 6.4 0.00 2.06 2.06 100 1018.5
20260830235057 27 104 0.0 3.2 0.00 2.06 2.06 100 1018.5
20260830234604 27 104 0.0 6.4 0.00 2.06 2.06 100 1018.4
20260830234059 27 105 0.0 6.4 0.00 2.06 2.06 100 1018.3
20260830233556 27 107 1.6 6.4 0.00 2.06 2.06 100 1018.4
20260830233055 27 105 0.0 4.8 0.00 2.06 2.06 100 1018.3
20260830232555 27 96 0.0 4.8 0.00 2.06 2.06 100 1018.1
20260830232057 27 74 0.0 4.8 0.00 2.06 2.06 100 1018.0
20260830231555 27 103 0.0 3.2 0.00 2.06 2.06 100 1017.9
20260830231054 27 105 0.0 3.2 0.00 2.06 2.06 100 1017.8
20260830230554 27 105 0.0 4.8 0.00 2.06 2.06 100 1017.8
20260830230055 27 105 1.6 4.8 0.00 2.06 2.06 100 1017.6
20260830225554 27 97 1.6 4.8 0.00 2.06 2.06 100 1017.6
20260830225054 27 90 0.0 4.8 0.00 2.06 2.06 100 1017.8
20260830224556 27 91 0.0 4.8 0.00 2.08 2.06 100 1017.8
20260830224054 27 48 0.0 4.8 0.00 2.08 2.06 100 1017.9
20260830223556 27 81 0.0 4.8 0.00 2.08 2.06 100 1018.0